Powrót do katalogu

FENGYUN 1C DEB

LostSSO
NORAD 36141·DEBRIS·🇨🇳 China

Wystrzelony May 10, 1999 z Taiyuan Satellite Launch Center

Loading…

Następne Przeloty (najbliższe 24 godziny)

TLE

NieaktualneSource: Space-Track

Epoka: Apr 29, 2022, 18:05 UTC

1 36141U 99025DRN 22119.75408490  .00006329  00000-0  36313-2 0  9990
2 36141  98.5006  97.3018 0142096  44.7685 316.4848 14.04711816670043

Śledź FENGYUN 1C DEB w czasie rzeczywistym z AllMySat

Download on the App Store